Location: Caltech
(34.1382°N, 118.1253°W)
Time: 04:08:53
(UTC-08:00)

Tiros 1 despin weight - Visible Passes

Search period start: 12 February 2016 00:00
Search period end: 22 February 2016 00:00
Orbit: 597 x 645 km, 48.2° (Epoch: 12 February)

Date Brightness Start Highest point End Pass type
(mag) Time Alt. Az. Time Alt. Az. Time Alt. Az.
12 Feb ? 18:01:50 10° NW 18:04:20 15° N 18:06:49 10° NNE visible
12 Feb ? 19:44:52 10° NNW 19:45:53 13° NNW 19:45:53 13° NNW visible
13 Feb ? 18:20:20 10° NNW 18:22:24 13° N 18:24:28 10° NNE visible
13 Feb ? 20:02:08 10° NNW 20:02:41 12° NNW 20:02:41 12° NNW visible
14 Feb ? 18:38:14 10° NNW 18:40:29 14° N 18:42:23 11° NNE visible
14 Feb ? 20:19:19 10° NW 20:19:30 11° NNW 20:19:30 11° NNW visible
15 Feb ? 18:55:38 10° NNW 18:58:30 17° NNE 18:59:15 16° NNE visible
16 Feb ? 19:12:50 10° NNW 19:16:09 23° NNE 19:16:09 23° NNE visible
17 Feb ? 19:30:03 10° NW 19:33:07 32° N 19:33:07 32° N visible
18 Feb ? 18:06:21 10° NNW 18:09:34 19° NNE 18:12:46 10° ENE visible
18 Feb ? 19:47:20 10° NW 19:50:11 38° NW 19:50:11 38° NW visible
19 Feb ? 18:23:32 10° NW 18:27:24 29° NNE 18:30:12 16° ENE visible
19 Feb ? 20:04:52 10° WNW 20:07:20 31° WNW 20:07:20 31° WNW visible
20 Feb ? 18:40:45 10° NW 18:45:05 50° NNE 18:47:30 24° E visible
20 Feb ? 20:22:51 10° WNW 20:24:39 19° W 20:24:39 19° W visible
21 Feb ? 18:58:08 10° NW 19:02:34 82° SW 19:04:56 27° SE visible
